User: anonymous   Login
Location: Unspecified
(0.0000°N, 0.0000°E)
Time: 04:29:40
(UTC+02:00)
Language:

ARIANE 5 R/B - Orbit

View from above orbital plane
View from above orbital plane
View from above satellite
View from above satellite

Ground track
Ground track

The orbit data is extracted from the following two-line orbital elements,

1 29646U 06054D   17119.21902240 +.00002760 +00000-0 +61783-3 0  9994
2 29646 003.1044 346.0718 7104346 274.1628 014.3452 02.51070522090502
Epoch (UTC): 29 April 2017 05:15:23
Eccentricity: 0.7104346
inclination: 3.1044°
perigee height: 243 km
apogee height: 32733 km
right ascension of ascending node: 346.0718°
argument of perigee: 274.1628°
revolutions per day: 2.51070522
mean anomaly at epoch: 14.3452°
orbit number at epoch: 9050

The dashed part of the orbit path shows where the satellite is in the earth's shadow,  

DLR